K8JMX-13 Weather Reports


Display with metric or nautical units.
time (UTC)temp
F
wind
direction
speed
MPH
gust
MPH
rain 1hr
in
rain 24hr
in
rain mn
in
humidity
%
barometer
mb
20260510204119 68 334 2.0 4.0 0.00 0.00 0.00 38 1015.8
20260510203616 66 24 3.0 6.0 0.00 0.00 0.00 39 1015.8
20260510203113 66 18 4.0 6.0 0.00 0.00 0.00 40 1015.9
20260510202612 66 42 4.0 6.0 0.00 0.00 0.00 40 1015.9
20260510202108 68 46 1.0 6.0 0.00 0.00 0.00 36 1015.9
20260510201605 69 313 2.0 4.0 0.00 0.00 0.00 35 1015.7
20260510201102 68 2 2.0 7.0 0.00 0.00 0.00 35 1015.8
20260510200553 68 101 3.0 10.0 0.00 0.00 0.00 38 1016.0
20260510200051 69 50 2.0 4.0 0.00 0.00 0.00 37 1016.1
20260510195548 69 56 2.0 6.0 0.00 0.00 0.00 36 1016.0
20260510195043 69 18 5.0 7.0 0.00 0.00 0.00 36 1016.0
20260510194539 68 358 4.0 10.0 0.00 0.00 0.00 39 1016.1
20260510194035 69 68 2.0 7.0 0.00 0.00 0.00 37 1016.1
20260510193530 68 289 2.0 7.0 0.00 0.00 0.00 36 1016.1
20260510193026 68 80 6.0 8.0 0.00 0.00 0.00 38 1015.9
20260510192521 68 5 4.0 6.0 0.00 0.00 0.00 38 1015.9
20260510192017 69 84 7.0 9.0 0.00 0.00 0.00 38 1016.0
20260510191514 68 330 4.0 7.0 0.00 0.00 0.00 39 1015.9
20260510191010 70 18 5.0 7.0 0.00 0.00 0.00 35 1016.1
20260510190503 68 34 0.0 7.0 0.00 0.00 0.00 39 1016.1
20260510185959 68 8 3.0 6.0 0.00 0.00 0.00 38 1015.8
20260510185456 67 61 2.0 4.0 0.00 0.00 0.00 40 1016.1
20260510184953 64 63 2.0 9.0 0.00 0.00 0.00 42 1015.9
20260510184451 67 61 5.0 9.0 0.00 0.00 0.00 40 1015.8
20260510183945 67 71 1.0 3.0 0.00 0.00 0.00 40 1015.8
20260510183442 68 312 3.0 6.0 0.00 0.00 0.00 39 1016.1
20260510182942 67 334 2.0 6.0 0.00 0.00 0.00 42 1016.0
20260510182438 66 68 5.0 7.0 0.00 0.00 0.00 40 1015.8
20260510181934 68 61 1.0 8.0 0.00 0.00 0.00 40 1015.9
20260510181433 68 82 1.0 4.0 0.00 0.00 0.00 38 1015.8
20260510180928 68 357 2.0 3.0 0.00 0.00 0.00 40 1015.8
20260510180425 68 16 2.0 4.0 0.00 0.00 0.00 38 1016.0
20260510175922 66 342 2.0 6.0 0.00 0.00 0.00 41 1016.1
20260510175418 66 37 6.0 8.0 0.00 0.00 0.00 42 1015.9
20260510174914 66 91 4.0 8.0 0.00 0.00 0.00 39 1015.6
20260510174412 66 25 5.0 7.0 0.00 0.00 0.00 38 1015.5
20260510173908 67 73 6.0 8.0 0.00 0.00 0.00 38 1015.5
20260510173404 67 63 2.0 4.0 0.00 0.00 0.00 38 1015.4
20260510172901 67 338 3.0 4.0 0.00 0.00 0.00 38 1015.6
20260510172356 66 338 4.0 6.0 0.00 0.00 0.00 40 1015.6
20260510171853 66 278 2.0 4.0 0.00 0.00 0.00 40 1015.5
20260510171350 66 100 1.0 4.0 0.00 0.00 0.00 40 1015.6
20260510170847 65 11 1.0 4.0 0.00 0.00 0.00 40 1015.5
20260510170343 65 49 3.0 9.0 0.00 0.00 0.00 40 1015.5
20260510165839 65 61 0.0 1.0 0.00 0.00 0.00 39 1015.5
20260510165335 66 82 4.0 8.0 0.00 0.00 0.00 39 1015.4
20260510164833 64 39 2.0 7.0 0.00 0.00 0.00 39 1015.6
20260510164330 64 52 4.0 4.0 0.00 0.00 0.00 38 1015.7
20260510163829 64 43 4.0 7.0 0.00 0.00 0.00 40 1015.7
20260510163325 64 44 2.0 6.0 0.00 0.00 0.00 43 1015.8
20260510162820 65 330 2.0 4.0 0.00 0.00 0.00 41 1015.6
20260510162318 63 43 3.0 6.0 0.00 0.00 0.00 41 1015.5
20260510161813 63 285 3.0 7.0 0.00 0.00 0.00 40 1015.7
20260510161309 63 84 4.0 7.0 0.00 0.00 0.00 43 1015.6
20260510160806 63 14 4.0 10.0 0.00 0.00 0.00 41 1015.8
20260510160302 63 75 1.0 4.0 0.00 0.00 0.00 43 1015.6
20260510155757 62 102 2.0 3.0 0.00 0.00 0.00 45 1015.5
20260510155254 63 21 5.0 8.0 0.00 0.00 0.00 43 1015.5
20260510154749 62 32 5.0 7.0 0.00 0.00 0.00 44 1015.5
20260510154245 62 95 2.0 3.0 0.00 0.00 0.00 43 1015.4
20260510153735 62 31 2.0 6.0 0.00 0.00 0.00 46 1015.7
20260510153231 62 110 3.0 4.0 0.00 0.00 0.00 48 1015.5
20260510152728 60 31 1.0 3.0 0.00 0.00 0.00 49 1015.2
20260510152224 61 72 3.0 4.0 0.00 0.00 0.00 48 1015.3
20260510151721 61 130 2.0 6.0 0.00 0.00 0.00 47 1015.1
20260510151220 61 19 2.0 8.0 0.00 0.00 0.00 48 1015.1
20260510150715 61 57 2.0 6.0 0.00 0.00 0.00 49 1015.1
20260510150210 61 25 3.0 4.0 0.00 0.00 0.00 48 1014.9
20260510145707 60 117 1.0 4.0 0.00 0.00 0.00 50 1014.9
20260510145203 60 31 3.0 4.0 0.00 0.00 0.00 49 1014.7
20260510144659 60 53 1.0 3.0 0.00 0.00 0.00 49 1014.9
20260510144156 60 23 2.0 6.0 0.00 0.00 0.00 52 1014.7
20260510143651 60 68 2.0 3.0 0.00 0.00 0.00 49 1014.6
20260510143148 59 80 2.0 4.0 0.00 0.00 0.00 50 1014.5
20260510142644 59 12 2.0 7.0 0.00 0.00 0.00 50 1014.4
20260510142141 59 48 3.0 3.0 0.00 0.00 0.00 50 1014.3
20260510141638 58 12 4.0 4.0 0.00 0.00 0.00 51 1014.5
20260510141136 58 23 5.0 7.0 0.00 0.00 0.00 51 1014.4
20260510140632 58 27 3.0 7.0 0.00 0.00 0.00 51 1014.4
20260510140132 58 40 4.0 9.0 0.00 0.00 0.00 50 1014.2
20260510135627 57 54 2.0 3.0 0.00 0.00 0.00 53 1014.3
20260510135124 57 88 1.0 7.0 0.00 0.00 0.00 52 1014.1
20260510134621 58 21 5.0 10.0 0.00 0.00 0.00 51 1014.2
20260510134118 57 68 2.0 4.0 0.00 0.00 0.00 52 1014.1
20260510133614 57 353 4.0 8.0 0.00 0.00 0.00 53 1014.1
20260510133109 56 58 2.0 3.0 0.00 0.00 0.00 54 1014.0
20260510132606 56 60 1.0 4.0 0.00 0.00 0.00 54 1013.9
20260510132103 56 74 3.0 4.0 0.00 0.00 0.00 53 1013.9
20260510131601 56 72 0.0 1.0 0.00 0.00 0.00 55 1013.9
20260510131058 56 59 1.0 3.0 0.00 0.00 0.00 54 1013.8
20260510130554 56 68 1.0 4.0 0.00 0.00 0.00 53 1013.8
20260510130052 56 63 3.0 6.0 0.00 0.00 0.00 53 1013.8
20260510125548 56 50 2.0 6.0 0.00 0.00 0.00 53 1014.0
20260510125044 56 59 0.0 2.0 0.00 0.00 0.00 55 1013.8
20260510124541 55 69 0.0 2.0 0.00 0.00 0.00 55 1013.7
20260510124038 55 60 2.0 4.0 0.00 0.00 0.00 55 1013.4
20260510123533 55 115 1.0 3.0 0.00 0.00 0.00 55 1013.3
20260510123030 55 26 1.0 2.0 0.00 0.00 0.00 60 1013.4
20260510122525 55 89 1.0 3.0 0.00 0.00 0.00 60 1013.3
20260510122022 55 57 0.0 3.0 0.00 0.00 0.00 60 1013.3
20260510121519 55 80 0.0 2.0 0.00 0.00 0.00 62 1013.2
20260510121016 55 63 0.0 1.0 0.00 0.00 0.00 61 1013.1
20260510120514 55 63 0.0 2.0 0.00 0.00 0.00 63 1013.2
20260510120010 55 46 1.0 2.0 0.00 0.00 0.00 64 1013.2
20260510115507 55 57 1.0 2.0 0.00 0.00 0.00 65 1013.2
20260510115003 55 63 1.0 2.0 0.00 0.00 0.00 64 1013.0
20260510114459 55 63 1.0 1.0 0.00 0.00 0.00 64 1012.9
20260510113955 55 67 0.0 1.0 0.00 0.00 0.00 64 1012.9
20260510113450 55 70 2.0 3.0 0.00 0.00 0.00 63 1012.7
20260510112948 55 63 0.0 0.0 0.00 0.00 0.00 64 1012.6
20260510112445 55 41 0.0 1.0 0.00 0.00 0.00 65 1012.4
20260510111941 55 29 1.0 2.0 0.00 0.00 0.00 64 1012.7
20260510111437 55 75 0.0 1.0 0.00 0.00 0.00 64 1012.3
20260510110933 55 57 0.0 3.0 0.00 0.00 0.00 63 1012.1
20260510110430 55 60 1.0 1.0 0.00 0.00 0.00 64 1011.9
20260510105926 55 69 1.0 4.0 0.00 0.00 0.00 63 1011.6
20260510105421 55 65 1.0 3.0 0.00 0.00 0.00 63 1012.0
20260510104917 55 70 1.0 6.0 0.00 0.00 0.00 63 1012.0
20260510104414 56 60 2.0 8.0 0.00 0.00 0.00 63 1011.8
20260510103910 56 46 3.0 6.0 0.00 0.00 0.00 63 1011.9
20260510103408 56 46 3.0 7.0 0.00 0.00 0.00 64 1011.5
20260510102903 56 79 0.0 3.0 0.00 0.00 0.00 64 1011.1
20260510102358 56 18 3.0 6.0 0.00 0.00 0.00 64 1011.3
20260510101856 56 34 1.0 4.0 0.00 0.00 0.00 64 1011.2
20260510101354 56 56 2.0 7.0 0.00 0.00 0.00 64 1011.2
20260510100851 57 49 0.0 1.0 0.00 0.00 0.00 65 1011.0
20260510100348 57 22 3.0 3.0 0.00 0.00 0.00 65 1010.8
20260510095844 57 64 0.0 2.0 0.00 0.00 0.00 65 1010.8
20260510095339 57 14 3.0 3.0 0.00 0.00 0.00 65 1010.7
20260510094838 57 77 1.0 1.0 0.00 0.00 0.00 65 1010.7
20260510094333 57 68 1.0 2.0 0.00 0.00 0.00 65 1010.8
20260510093830 57 28 1.0 2.0 0.00 0.00 0.00 65 1010.7
20260510093326 57 60 0.0 2.0 0.00 0.00 0.00 66 1010.7
20260510092822 57 39 0.0 3.0 0.00 0.00 0.00 64 1010.6
20260510092318 58 65 1.0 3.0 0.00 0.00 0.00 64 1010.4
20260510091814 58 28 1.0 4.0 0.00 0.00 0.00 65 1010.2
20260510091312 58 49 3.0 7.0 0.00 0.00 0.00 65 1010.2
20260510090808 58 54 1.0 2.0 0.00 0.00 0.00 65 1010.2
20260510090305 58 25 2.0 3.0 0.00 0.00 0.00 65 1009.8
20260510085801 58 73 1.0 8.0 0.00 0.00 0.00 65 1010.0
20260510085300 59 47 1.0 7.0 0.00 0.00 0.00 65 1009.8
20260510084756 59 54 1.0 2.0 0.00 0.00 0.00 64 1009.6
20260510084254 59 2 2.0 4.0 0.00 0.00 0.00 64 1009.5
20260510083750 59 66 0.0 7.0 0.00 0.00 0.00 64 1009.2
20260510083248 60 36 2.0 10.0 0.00 0.00 0.00 64 1009.0
20260510082743 60 30 3.0 3.0 0.00 0.00 0.00 65 1009.0
20260510082240 60 61 3.0 6.0 0.00 0.00 0.00 66 1009.2
20260510081739 60 1 2.0 3.0 0.00 0.00 0.00 67 1009.0
20260510081235 60 41 0.0 1.0 0.00 0.00 0.00 68 1008.9
20260510080730 60 177 2.0 4.0 0.00 0.00 0.00 68 1008.9
20260510080226 60 355 2.0 3.0 0.00 0.00 0.00 68 1009.0
20260510075723 60 71 0.0 2.0 0.00 0.00 0.00 68 1008.9
20260510075221 60 62 1.0 2.0 0.00 0.00 0.00 67 1008.9
20260510074718 60 14 2.0 3.0 0.00 0.00 0.00 67 1008.8
20260510074214 60 310 3.0 4.0 0.00 0.00 0.00 66 1008.8
20260510073711 61 339 2.0 4.0 0.00 0.00 0.00 66 1008.8
20260510073206 61 326 3.0 6.0 0.00 0.00 0.00 65 1009.3
20260510072703 61 292 3.0 4.0 0.00 0.00 0.00 65 1009.1
20260510072159 61 289 2.0 3.0 0.00 0.00 0.00 64 1009.2
20260510071656 61 234 1.0 3.0 0.00 0.00 0.00 64 1009.2
20260510071153 61 336 1.0 1.0 0.00 0.00 0.00 63 1008.8
20260510070650 62 319 2.0 2.0 0.00 0.00 0.00 63 1008.6
20260510070148 62 332 0.0 1.0 0.00 0.00 0.00 63 1008.6
20260510065643 62 315 1.0 2.0 0.00 0.00 0.00 62 1008.8
20260510065139 62 266 2.0 2.0 0.00 0.00 0.00 62 1008.9
20260510064636 62 326 1.0 2.0 0.00 0.00 0.00 63 1008.9
20260510064133 62 289 1.0 2.0 0.00 0.00 0.00 63 1008.9
20260510063629 62 307 2.0 3.0 0.00 0.00 0.00 62 1009.0
20260510063126 62 283 2.0 4.0 0.00 0.00 0.00 62 1008.8
20260510062622 62 338 1.0 3.0 0.00 0.00 0.00 63 1008.8
20260510062118 63 27 0.0 2.0 0.00 0.00 0.00 63 1008.8
20260510061614 63 214 2.0 6.0 0.00 0.00 0.00 62 1008.5
20260510061112 63 285 2.0 6.0 0.00 0.00 0.00 62 1008.6
20260510060607 63 288 4.0 6.0 0.00 0.00 0.00 62 1008.6
20260510060104 64 321 4.0 8.0 0.00 0.00 0.00 62 1009.0
20260510055600 64 272 2.0 9.0 0.00 0.00 0.00 63 1009.0
20260510055059 64 334 3.0 9.0 0.00 0.00 0.00 64 1009.2
20260510054554 64 265 6.0 9.0 0.00 0.00 0.00 64 1009.1
20260510054049 64 274 5.0 8.0 0.00 0.00 0.00 63 1009.1
20260510053544 64 267 6.0 15.0 0.00 0.00 0.00 62 1009.2
20260510053041 64 242 5.0 8.0 0.00 0.00 0.00 62 1009.2
20260510052537 64 283 6.0 8.0 0.00 0.00 0.00 63 1009.1
20260510052033 63 277 2.0 3.0 0.00 0.00 0.00 64 1008.9
20260510051529 63 179 1.0 2.0 0.00 0.00 0.00 64 1008.6
20260510051026 63 180 1.0 2.0 0.00 0.00 0.00 64 1008.8
20260510050523 64 296 2.0 3.0 0.00 0.00 0.00 63 1008.4
20260510050020 64 294 2.0 3.0 0.00 0.00 0.00 62 1008.5
20260510045517 64 15 0.0 2.0 0.00 0.00 0.00 63 1008.4
20260510045013 64 88 0.0 2.0 0.00 0.00 0.00 63 1008.5
20260510044510 64 330 1.0 2.0 0.00 0.00 0.00 62 1008.2
20260510044008 64 257 0.0 3.0 0.00 0.00 0.00 63 1008.2
20260510043502 64 130 0.0 0.0 0.00 0.00 0.00 63 1008.3
20260510043002 64 186 0.0 2.0 0.00 0.00 0.00 63 1008.1
20260510042457 64 156 1.0 1.0 0.00 0.00 0.00 63 1008.2
20260510041952 64 181 1.0 4.0 0.00 0.00 0.00 62 1008.2
20260510041450 64 138 0.0 2.0 0.00 0.00 0.00 63 1008.1
20260510040948 64 207 0.0 2.0 0.00 0.00 0.00 62 1008.0
20260510040444 64 175 1.0 2.0 0.00 0.00 0.00 62 1008.0
20260510035940 64 200 1.0 2.0 0.00 0.21 0.21 62 1007.8
20260510035436 64 206 2.0 4.0 0.00 0.21 0.21 62 1007.9
20260510034936 64 223 2.0 2.0 0.00 0.21 0.21 63 1008.1
20260510034435 64 123 1.0 2.0 0.00 0.21 0.21 62 1007.8
20260510033931 64 95 1.0 2.0 0.00 0.21 0.21 62 1007.7
20260510033427 64 132 0.0 0.0 0.00 0.21 0.21 62 1007.8
20260510032924 65 147 1.0 2.0 0.00 0.21 0.21 61 1007.8
20260510032421 65 129 1.0 2.0 0.00 0.21 0.21 61 1007.7
20260510031916 65 140 1.0 2.0 0.00 0.21 0.21 61 1007.6
20260510031413 65 144 1.0 2.0 0.00 0.21 0.21 61 1007.7
20260510030913 65 113 0.0 3.0 0.00 0.21 0.21 61 1007.6
20260510030409 65 201 2.0 2.0 0.00 0.21 0.21 60 1007.6
20260510025907 65 195 4.0 4.0 0.00 0.21 0.21 60 1007.6
20260510025404 65 121 1.0 3.0 0.00 0.21 0.21 61 1007.6
20260510024901 66 147 1.0 1.0 0.00 0.21 0.21 61 1007.6
20260510024358 66 121 0.0 2.0 0.00 0.21 0.21 61 1007.6
20260510023854 66 200 2.0 2.0 0.00 0.21 0.21 60 1007.5
20260510023350 66 204 2.0 2.0 0.00 0.21 0.21 60 1007.5
20260510022848 66 178 1.0 2.0 0.00 0.21 0.21 60 1007.4
20260510022347 66 168 1.0 2.0 0.00 0.21 0.21 60 1007.5
20260510021846 66 122 1.0 1.0 0.00 0.21 0.21 60 1007.2
20260510021344 66 194 1.0 3.0 0.00 0.21 0.21 59 1007.2
20260510020841 66 154 1.0 2.0 0.00 0.21 0.21 60 1007.3
20260510020340 67 92 1.0 2.0 0.00 0.21 0.21 60 1007.0
20260510015836 67 164 1.0 2.0 0.00 0.21 0.21 59 1007.3
20260510015332 67 219 2.0 3.0 0.00 0.21 0.21 59 1007.1
20260510014828 67 161 1.0 3.0 0.00 0.21 0.21 59 1007.1
20260510014325 67 191 2.0 2.0 0.00 0.21 0.21 59 1007.0
20260510013821 67 164 2.0 3.0 0.00 0.21 0.21 59 1006.9
20260510013317 68 208 2.0 3.0 0.00 0.21 0.21 58 1006.7
20260510012812 68 217 2.0 3.0 0.00 0.21 0.21 58 1006.7
20260510012307 68 217 2.0 2.0 0.00 0.21 0.21 58 1006.7
20260510011806 68 162 1.0 1.0 0.00 0.21 0.21 57 1006.8
20260510011302 68 221 1.0 2.0 0.00 0.21 0.21 57 1006.4
20260510010759 68 172 2.0 3.0 0.00 0.21 0.21 57 1006.2
20260510010256 68 165 2.0 3.0 0.00 0.21 0.21 56 1006.2
20260510005753 68 177 1.0 2.0 0.00 0.21 0.21 56 1006.4
20260510005249 68 183 1.0 2.0 0.00 0.21 0.21 56 1006.3
20260510004747 69 163 2.0 2.0 0.00 0.21 0.21 55 1006.2
20260510004244 69 184 2.0 4.0 0.00 0.21 0.21 55 1006.3
20260510003742 69 200 1.0 2.0 0.00 0.21 0.21 54 1006.3
20260510003238 69 209 1.0 4.0 0.00 0.21 0.21 54 1006.4
20260510002736 69 160 2.0 3.0 0.00 0.21 0.21 53 1006.1
20260510002234 70 201 2.0 4.0 0.00 0.21 0.21 53 1006.1
20260510001731 70 207 4.0 7.0 0.00 0.21 0.21 52 1006.0
20260510001230 70 279 2.0 4.0 0.00 0.21 0.21 52 1006.2
20260510000725 70 82 1.0 4.0 0.00 0.21 0.21 52 1006.0
20260510000222 71 217 2.0 4.0 0.00 0.21 0.21 51 1005.6
20260509235719 71 204 3.0 7.0 0.00 0.21 0.21 50 1005.7
20260509235216 71 225 4.0 7.0 0.00 0.21 0.21 50 1005.5
20260509234707 71 265 3.0 4.0 0.00 0.21 0.21 50 1005.6
20260509234203 71 250 2.0 4.0 0.00 0.21 0.21 50 1005.6
20260509233701 71 252 6.0 9.0 0.00 0.21 0.21 49 1005.6
20260509233158 71 213 3.0 7.0 0.00 0.21 0.21 49 1005.5
20260509232655 71 225 4.0 13.0 0.00 0.21 0.21 48 1005.6
20260509232151 71 244 6.0 9.0 0.00 0.21 0.21 48 1005.6
20260509231648 72 216 2.0 6.0 0.00 0.21 0.21 48 1005.4
20260509231146 72 214 4.0 9.0 0.00 0.21 0.21 47 1005.6
20260509230643 72 168 2.0 9.0 0.00 0.21 0.21 47 1005.5
20260509230139 72 250 3.0 13.0 0.00 0.21 0.21 48 1005.5
20260509225636 73 215 3.0 10.0 0.00 0.21 0.21 47 1005.3
20260509225132 73 205 2.0 2.0 0.00 0.21 0.21 47 1005.5
20260509224627 73 236 4.0 6.0 0.00 0.21 0.21 48 1005.4
20260509224124 72 162 6.0 9.0 0.00 0.21 0.21 48 1005.5
20260509223620 72 202 4.0 7.0 0.00 0.21 0.21 48 1005.2
20260509223118 72 214 3.0 6.0 0.00 0.21 0.21 48 1005.3
20260509222614 73 220 5.0 9.0 0.00 0.21 0.21 48 1005.2
20260509222105 72 232 6.0 9.0 0.00 0.21 0.21 50 1005.2
20260509221600 72 187 8.0 13.0 0.00 0.21 0.21 50 1005.2
20260509221057 73 242 6.0 10.0 0.00 0.21 0.21 50 1005.5
20260509220552 73 214 4.0 7.0 0.00 0.21 0.21 50 1005.2
20260509220049 72 257 2.0 8.0 0.00 0.21 0.21 51 1005.2
20260509215544 72 175 4.0 10.0 0.00 0.21 0.21 51 1005.3
20260509215042 73 317 2.0 4.0 0.00 0.21 0.21 50 1005.3
20260509214539 72 171 5.0 8.0 0.00 0.21 0.21 49 1005.3
20260509214036 73 194 4.0 7.0 0.00 0.21 0.21 50 1005.3
20260509213532 72 165 3.0 8.0 0.00 0.21 0.21 50 1005.5
20260509213029 72 180 4.0 7.0 0.00 0.21 0.21 49 1005.4
20260509212526 73 194 5.0 7.0 0.00 0.21 0.21 48 1005.5
20260509212023 73 164 3.0 4.0 0.00 0.21 0.21 47 1005.6
20260509211518 73 198 2.0 11.0 0.00 0.21 0.21 47 1005.6
20260509211016 73 230 4.0 9.0 0.00 0.21 0.21 47 1005.7
20260509210512 72 285 2.0 10.0 0.00 0.21 0.21 48 1005.5
20260509210009 72 231 4.0 6.0 0.00 0.21 0.21 49 1005.5
20260509205503 73 224 3.0 9.0 0.00 0.21 0.21 47 1005.7
20260509204959 72 207 6.0 7.0 0.00 0.21 0.21 48 1005.7
20260509204455 72 223 3.0 10.0 0.00 0.21 0.21 49 1005.7